Simultaneous Nadir Overpasses (SNOs) Predictions

Prediction of SNOs between AQUA and NOAA-19 Satellite Orbit:

Table of predicted SNOs for the next 14.0 days since TLE Epoch: 5/9/2020
Index Date (AQUA) Time (AQUA) Lat,Lon (AQUA) SZA (AQUA ) Date (NOAA-19) Time (NOAA-19) Lat,Lon (NOAA-19) SZA (NOAA-19 ) Distance(km) Time Diff (sec)
1 05/10/2020 17:55:18 -79.81, 62.17 116.85 05/10/2020 17:54:57 -79.81, 62.06 116.82 2.27 21
2 05/10/2020 18:44:47 79.88,-130.74 63.26 05/10/2020 18:45:57 79.95,-129.06 63.15 33.52 70
3 05/12/2020 23:29:01 79.80, 158.82 62.58 05/12/2020 23:28:21 79.80, 158.69 62.62 2.61 40
4 05/13/2020 00:18:28 -79.83, -33.79 117.38 05/13/2020 00:19:15 -79.84, -33.63 117.40 3.20 47
5 05/15/2020 05:02:43 -79.78,-104.51 117.97 05/15/2020 05:01:35 -79.80,-104.62 117.93 2.68 68
6 05/15/2020 05:52:11 79.83, 62.80 62.09 05/15/2020 05:52:39 79.82, 62.94 62.07 2.76 28
7 05/17/2020 11:25:53 -79.81, 159.49 118.44 05/17/2020 11:25:54 -79.79, 159.37 118.44 3.08 1
8 05/19/2020 16:59:35 79.79,-103.75 61.05 05/19/2020 16:59:17 79.79,-103.92 61.08 3.50 18
9 05/19/2020 17:49:02 -79.81, 63.75 118.93 05/19/2020 17:50:12 -79.82, 63.66 118.94 2.25 70
10 05/21/2020 22:33:18 -79.80, -7.30 119.37 05/21/2020 22:32:32 -79.77, -7.35 119.38 3.49 46




NCC Satellite Simultaneous Nadir Overpasses (SNOs) Prediction Service
